Location: Christianberg
(48.9086°N, 14.0209°E)
Time: 21:07:17
(UTC+00:00)

Cosmos 1766 Rocket - Pass Details

Date: 20 June 2021
Orbit: 604 x 634 km, 82.5° (Epoch: 04 August)

Event Time Altitude Azimuth Distance (km) Brightness Sun altitude
Exits shadow 01:21:58 - 168° (SSE) 2,221 6.0 -11.5°
Reaches altitude 10° 01:22:31 10° 166° (SSE) 2,004 5.8 -11.5°
Maximum altitude 01:26:46 46° 93° (E) 852 4.5 -11.1°
Drops below altitude 10° 01:31:04 10° 21° (NNE) 2,029 7.7 -10.7°
Sets 01:33:23 0° 15° (NNE) 2,944 8.6 -10.5°
